Regional Weather Roundup
Issued by NWS

Home | Current Version | Previous Version | Text Only | Print | Product List | Glossary Off
Versions: 1 2 3 4 5 6 7 8 9 10 11 12 13 14 15 16 17 18 19 20 21 22 23 24 25 26 27 28 29 30 31 32 33 34 35 36 37 38 39 40 41 42 43 44 45 46 47 48 49 50

000
ASUS45 KABQ 250201
RWRNM
NEW MEXICO REGIONAL WEATHER ROUNDUP
NATIONAL WEATHER SERVICE ALBUQUERQUE NM
800 PM MDT TUE MAY 24 2016

NOTE: "FAIR" MEANS FEW OR NO CLOUDS BELOW 12,000 FEET AGL WITH NO
       SIGNIFICANT WEATHER OR OBSTRUCTIONS TO VISION.

      THIS PRODUCT IS RELEASED AS TWO VERSIONS.  ONE VERSION NEAR
      THE TOP OF THE HOUR CONTAINING PRELIMINARY DATA FROM ALBUQUERQUE
      AND OTHER STATIONS.  A FINAL VERSION WITH ADDITIONAL DATA IS
      ISSUED ABOUT 10 MINUTES AFTER THE HOUR.

NMZ501-503-504-510>518-250300-
NORTHWEST PLATEAU/NORTHCENTRAL MOUNTAINS

CITY           SKY/WX    TMP DP  RH WIND       PRES   REMARKS
FARMINGTON     FAIR      71   6   8 SW18      29.93R
SANTA FE       FAIR      71  11  10 SW12      29.97R
TAOS           FAIR      66  16  14 W17G25    30.03R
ANGEL FIRE     FAIR      54  20  26 S6        30.10S

$$
NMZ402-403-502-505>509-250300-
WESTCENTRAL MOUNTAINS/SOUTHWEST MOUNTAINS

CITY           SKY/WX    TMP DP  RH WIND       PRES   REMARKS
GALLUP         FAIR      65   8  10 SW20G31   30.05R
GRANTS         FAIR      67   9  10 W17G24    30.06R
SILVER CITY      N/A     75  16  10 W13G23    30.05R

$$
NMZ407-409-411-412-250300-
SOUTHERN DESERTS

CITY           SKY/WX    TMP DP  RH WIND       PRES   REMARKS
LORDSBURG      FAIR      79  18  10 W15G26    29.97R
DEMING         FAIR      81  20  10 SW12G24   29.97R
HOLLOMAN AFB   FAIR      83  12   7 SW13      29.92R
ALAMOGORDO     FAIR      82  14   7 SW12      29.94R
T OR C         FAIR      80  14   8 SW16      29.95R

$$
NMZ519>523-250300-
CENTRAL VALLEYS/CENTRAL HIGHLANDS

CITY           SKY/WX    TMP DP  RH WIND       PRES   REMARKS
ALBUQUERQUE    FAIR      79  10   7 SW15      29.93R
DOUBLE EAGLE   PTCLDY    73  14  10 W16       29.96R
CLINES CORNERS FAIR      67  14  13 SW15G29   30.03R
BELEN          FAIR      77   9   7 SW20      29.95R
SOCORRO        NOT AVBL

$$
NMZ524>526-539-540-250300-
SOUTHCENTRAL MOUNTAINS

CITY           SKY/WX    TMP DP  RH WIND       PRES   REMARKS
RUIDOSO        NOT AVBL

$$
NMZ527>531-250300-
NORTHEAST HIGHLANDS/NORTHEAST PLAINS

CITY           SKY/WX    TMP DP  RH WIND       PRES   REMARKS
LAS VEGAS      FAIR      65  15  14 SW13      30.01R
RATON          FAIR      67  20  16 W18G24    29.93R
CLAYTON        FAIR      72  24  16 SW13      29.85R

$$
NMZ532>537-250300-
EASTCENTRAL PLAINS

CITY           SKY/WX    TMP DP  RH WIND       PRES   REMARKS
TUCUMCARI      FAIR      82  14   8 SW17      29.83R
CANNON AFB     FAIR      74  31  20 SW8       29.89R
CLOVIS AIRPORT FAIR      73  28  19 S9        29.89R

$$
NMZ028-029-538-250300-
SOUTHEAST PLAINS

CITY           SKY/WX    TMP DP  RH WIND       PRES   REMARKS
ROSWELL        FAIR      83  19   9 SW14      29.87R
ARTESIA        FAIR      84  18   8 W14       29.90R
CARLSBAD       FAIR      84  14   7 W9        29.88R
HOBBS          FAIR      81  19  10 SW6       29.93R


$$



USA.gov is the U.S. government's official web portal to all federal, state and local government web resources and services.